Detroit, MI

4:58 PM EST on February 08, 2016 (GMT -0500)
Detroit City

Weather History for KDET - November, 2011

Change the Weather History Date:

Tuesday, November 29, 2011

  Actual Average Record
Temperature  
Mean Temperature 38 °F -  
Max Temperature 41 °F 39 °F 64 °F (1998)
Min Temperature 35 °F 29 °F 8 °F (1958)
Degree Days  
Heating Degree Days 27    
Moisture  
Dew Point 39 °F    
Average Humidity 98    
Maximum Humidity 100    
Minimum Humidity 93    
Precipitation  
Precipitation 1.86 in - - ()
Sea Level Pressure  
Sea Level Pressure 29.69 in    
Wind  
Wind Speed 16 mph (NNE)    
Max Wind Speed 26 mph    
Max Gust Speed 40 mph    
Visibility 4 miles    
Events Rain    
Averages and records for this station are not official NWS values.
T = Trace of Precipitation, MM = Missing Value Source: NWS Daily Summary

Daily Weather History Graph

Daily Weather History Graph

Search for Another Location

Airport or City:

Trip Planner

Search our weather history database for the weather conditions in past years. The results will help you decide how hot, cold, wet, or windy it might be!

Date:

Astronomy

Nov. 29, 2011 Rise Set
Actual Time 7:39 AM EST 5:01 PM EST
Civil Twilight 7:08 AM EST 5:32 PM EST
Nautical Twilight 6:33 AM EST 6:07 PM EST
Astronomical Twilight 5:59 AM EST 6:40 PM EST
Moon 11:23 AM EST (11/29) 9:55 PM EST (11/29)
Length of Visible Light 10h 24m
Length of Day
9h 21m
Waxing Crescent, 24% of the Moon is Illuminated
Nov 29
Waxing Crescent
Dec 2
First Quarter
Dec 10
Full
Dec 17
Last Quarter
Dec 24
New

Hourly Weather History & Observations

Time (EST) Temp. Windchill Dew Point Humidity Pressure Visibility Wind Dir Wind Speed Gust Speed Precip Events Conditions
12:53 AM 39.9 °F 35.1 °F 39.0 °F 97% 29.92 in 5.0 mi NNE 6.9 mph - 0.07 in Rain Light Rain
1:53 AM 39.2 °F 32.5 °F 39.2 °F 100% 29.90 in 5.0 mi North 10.4 mph - N/A Rain Rain
2:53 AM 39.9 °F 32.5 °F 39.0 °F 97% 29.87 in 7.0 mi NNE 12.7 mph 23.0 mph 0.07 in Rain Light Rain
3:53 AM 39.9 °F 32.9 °F 39.0 °F 97% 29.86 in 5.0 mi NNE 11.5 mph - 0.10 in Rain Light Rain
4:53 AM 39.9 °F 32.5 °F 39.0 °F 97% 29.86 in 4.0 mi NNE 12.7 mph 18.4 mph 0.15 in Rain Rain
5:53 AM 39.9 °F 31.1 °F 39.0 °F 97% 29.83 in 6.0 mi North 17.3 mph 26.5 mph 0.14 in Rain Light Rain
6:20 AM 39.2 °F 30.5 °F 39.2 °F 100% 29.81 in 6.0 mi North 16.1 mph 26.5 mph 0.06 in Rain Light Rain
6:53 AM 39.9 °F 31.1 °F 37.9 °F 93% 29.82 in 5.0 mi North 17.3 mph 27.6 mph 0.14 in Rain Rain
7:53 AM 39.9 °F 30.0 °F 37.9 °F 93% 29.81 in 5.0 mi North 21.9 mph 28.8 mph 0.12 in Rain Light Rain
8:53 AM 39.9 °F 31.1 °F 37.9 °F 93% 29.79 in 3.0 mi NNE 17.3 mph 27.6 mph 0.13 in Rain Rain
9:30 AM 39.2 °F 29.3 °F 39.2 °F 100% 29.77 in 2.0 mi NNE 20.7 mph 33.4 mph 0.07 in Rain Rain
9:53 AM 39.9 °F 30.8 °F 39.0 °F 97% 29.78 in 2.5 mi NNE 18.4 mph 28.8 mph 0.12 in Rain Light Rain
10:21 AM 39.2 °F 28.7 °F 39.2 °F 100% 29.77 in 1.2 mi NNE 23.0 mph 34.5 mph 0.09 in Rain Rain
10:43 AM 39.2 °F 29.0 °F 39.2 °F 100% 29.75 in 2.0 mi NNE 21.9 mph 35.7 mph 0.14 in Rain Light Rain
10:53 AM 39.9 °F 31.1 °F 39.9 °F 100% 29.77 in 2.0 mi North 17.3 mph 28.8 mph 0.16 in Rain Rain
11:24 AM 39.2 °F 29.6 °F 39.2 °F 100% 29.73 in 4.0 mi NNE 19.6 mph 31.1 mph N/A Rain Light Rain
11:38 AM 39.2 °F 28.0 °F 39.2 °F 100% 29.71 in 2.5 mi NNE 26.5 mph 40.3 mph 0.09 in Rain Light Rain
11:48 AM 39.2 °F 29.0 °F 39.2 °F 100% 29.70 in 3.0 mi NNE 21.9 mph 32.2 mph 0.10 in Rain Light Rain
11:53 AM 39.9 °F 30.0 °F - N/A% 29.71 in 2.5 mi NNE 21.9 mph 32.2 mph 0.11 in Rain Light Rain
12:28 PM 39.2 °F 28.3 °F 39.2 °F 100% 29.67 in 4.0 mi NNE 25.3 mph 40.3 mph 0.03 in Rain Light Rain
12:44 PM 39.2 °F 28.5 °F 39.2 °F 100% 29.66 in 2.5 mi NNE 24.2 mph 38.0 mph 0.04 in Rain Light Rain
12:53 PM 39.9 °F 30.2 °F 39.2 °F 97% 29.66 in 2.5 mi NNE 20.7 mph 38.0 mph 0.05 in Rain Light Rain
1:08 PM 39.2 °F 28.5 °F - N/A% 29.65 in 1.8 mi NNE 24.2 mph 40.3 mph 0.02 in Rain Light Rain
1:20 PM 39.2 °F 29.0 °F - N/A% 29.64 in 2.5 mi NNE 21.9 mph 29.9 mph 0.03 in Rain Light Rain
1:29 PM 39.2 °F 29.0 °F - N/A% 29.63 in 3.0 mi NNE 21.9 mph 33.4 mph 0.04 in Rain Light Rain
1:53 PM 39.9 °F 30.2 °F - N/A% 29.62 in 4.0 mi NNE 20.7 mph 34.5 mph 0.05 in Rain Light Rain
2:12 PM 39.2 °F 28.7 °F - N/A% 29.61 in 2.0 mi NNE 23.0 mph 34.5 mph N/A Rain Light Rain
2:38 PM 39.2 °F 29.3 °F 39.2 °F 100% 29.59 in 2.0 mi NNE 20.7 mph 32.2 mph N/A Rain Light Rain
2:53 PM 39.9 °F 29.2 °F 39.2 °F 97% 29.60 in 2.5 mi NNE 25.3 mph 32.2 mph 0.04 in Rain Light Rain
2:58 PM 39.2 °F 30.2 °F 39.2 °F 100% 29.59 in 3.0 mi NNE 17.3 mph 31.1 mph 0.00 in Rain Light Rain
3:36 PM 39.2 °F 30.2 °F 39.2 °F 100% 29.58 in 3.0 mi NNE 17.3 mph 36.8 mph 0.02 in Rain Light Rain
3:43 PM 39.2 °F 28.7 °F 39.2 °F 100% 29.59 in 2.5 mi NNE 23.0 mph 33.4 mph 0.03 in Rain Light Rain
3:53 PM 39.9 °F 30.8 °F 39.2 °F 97% 29.61 in 2.0 mi NNE 18.4 mph 29.9 mph 0.05 in Rain Rain
4:07 PM 41.0 °F 34.3 °F - N/A% 29.63 in 1.5 mi NE 11.5 mph 20.7 mph 0.04 in Rain Rain
4:22 PM 41.0 °F 33.1 °F - N/A% 29.63 in 2.0 mi NE 15.0 mph 24.2 mph 0.08 in Rain Light Rain
4:36 PM 41.0 °F 34.3 °F - N/A% 29.64 in 1.8 mi NE 11.5 mph - 0.12 in Rain Light Rain
4:39 PM 41.0 °F 35.2 °F - N/A% 29.64 in 2.0 mi NE 9.2 mph - 0.12 in Rain Light Rain
4:53 PM 41.0 °F 33.9 °F - N/A% 29.64 in 2.5 mi NNE 12.7 mph - 0.14 in Rain Light Rain
5:02 PM 39.2 °F 32.0 °F - N/A% 29.63 in 3.0 mi NNE 11.5 mph - 0.02 in Rain Light Rain
5:15 PM 39.2 °F 32.5 °F - N/A% 29.62 in 3.0 mi NNE 10.4 mph 18.4 mph 0.04 in Rain Light Rain
5:21 PM 39.2 °F 31.2 °F - N/A% 29.62 in 4.0 mi NNE 13.8 mph 21.9 mph 0.05 in Rain Light Rain
5:53 PM 39.9 °F 31.4 °F - N/A% 29.62 in 6.0 mi NNE 16.1 mph 21.9 mph 0.08 in Rain Light Rain
6:21 PM 39.2 °F 31.6 °F - N/A% 29.61 in 9.0 mi NNE 12.7 mph 24.2 mph N/A Rain Light Rain
6:32 PM 39.2 °F 31.2 °F - N/A% 29.61 in 9.0 mi North 13.8 mph 20.7 mph 0.03 in Rain Light Rain
6:53 PM 39.9 °F 32.1 °F - N/A% 29.62 in 10.0 mi North 13.8 mph - 0.04 in Rain Light Rain
7:53 PM 39.0 °F 31.0 °F - N/A% 29.63 in 9.0 mi North 13.8 mph 20.7 mph 0.04 in Rain Light Rain
8:12 PM 37.4 °F 29.3 °F - N/A% 29.62 in 3.0 mi North 12.7 mph 19.6 mph 0.01 in Rain Light Rain
8:22 PM 37.4 °F 29.8 °F - N/A% 29.62 in 2.5 mi North 11.5 mph - 0.01 in Rain Light Rain
8:53 PM 37.0 °F 28.9 °F - N/A% 29.65 in 2.5 mi North 12.7 mph 21.9 mph 0.03 in Rain Light Rain
9:16 PM 35.6 °F 26.6 °F - N/A% 29.64 in 4.0 mi North 13.8 mph 23.0 mph 0.02 in Rain Light Rain
9:53 PM 35.1 °F 25.9 °F - N/A% 29.65 in 5.0 mi North 13.8 mph 21.9 mph 0.03 in   Overcast
10:48 PM 35.6 °F 25.9 °F - N/A% 29.63 in 10.0 mi North 16.1 mph 27.6 mph 0.00 in   Overcast
10:53 PM 35.1 °F 24.5 °F - N/A% 29.65 in 9.0 mi North 18.4 mph 27.6 mph 0.00 in   Overcast
11:53 PM 35.1 °F 24.8 °F - N/A% 29.64 in 10.0 mi North 17.3 mph 29.9 mph N/A   Overcast